AirNav   Everest Fuels
 
 348 users online  

6PN6 Henke Heliport
Pittsburgh, Pennsylvania, USA

GOING TO PITTSBURGH?


FAA INFORMATION EFFECTIVE 18 JUNE 2020

Location

FAA Identifier: 6PN6
Lat/Long: 40-23-00.0000N 080-18-00.0000W
40-23.000000N 080-18.000000W
40.3833333,-80.3000000
(estimated)
Elevation: 1255 ft. / 383 m (estimated)
From city: 2 miles SE of PITTSBURGH, PA
Time zone: UTC -4 (UTC -5 during Standard Time)
Zip code: 15019

Heliport Operations

Heliport use: Private use. Permission required prior to landing
Activation date: 09/2004
Control tower: no
ARTCC: CLEVELAND CENTER
FSS: ALTOONA FLIGHT SERVICE STATION
Attendance: UNATNDD
Wind indicator: yes
Segmented circle: no
Lights: FOR PERIMETER LGTS CALL 724-796-5944.

Heliport Communications

WX ASOS at PIT (7 nm NE): PHONE 412-472-0145
WX AWOS-A at 42PN (14 nm E): PHONE 412-442-2213
WX AWOS-3PT at AFJ (15 nm S): 119.175 (724-228-3529)
WX ASOS at AGC (17 nm E): 120.55 (412-466-8968)

Nearby radio navigation aids

VOR radial/distance  VOR name  Freq  Var
AGCr307/13.4ALLEGHENY VOR/DME110.0009W
HLGr066/14.3WHEELING VOR/DME112.2007W
EWCr197/26.8ELLWOOD CITY VOR/DME115.8008W
AIRr054/32.3BELLAIRE VOR/DME117.1007W

 
NDB name  Hdg/Dist  Freq  Var  ID
CADIZ082/33.823907WCFX -.-. ..-. -..-
CASTLE181/38.727209WUCP ..- -.-. .--.

Heliport Services

Runway Information

Helipad H1

Dimensions: 33 x 33 ft. / 10 x 10 m
Surface: concrete
Traffic pattern: leftleft

Heliport Ownership and Management from official FAA records

Ownership: Privately-owned
Owner: JACOB HENKE
1146 VALLEY VIEW RD
BULGER, PA 15019
Phone 724-796-5944
Manager: JACOB HENKE
1146 VALLEY VIEW RD
BULGER, PA 15019
Phone 724-796-5944
JOANNE HENKE

Heliport Operational Statistics

Aircraft based on the field: 1
Helicopters: 1
    

Additional Remarks

HELIPAD CIRCULAR IN SHAPE.
FOR CD CTC PITTSBURGH APCH AT 412-472-5591

Instrument Procedures

There are no published instrument procedures at 6PN6.

Some nearby airports with instrument procedures:

KPIT - Pittsburgh International Airport (7 nm NE)
KAFJ - Washington County Airport (15 nm S)
G05 - Finleyville Airpark (16 nm SE)
KAGC - Allegheny County Airport (17 nm E)
2G2 - Jefferson County Airpark (18 nm W)
 
Loc | Ops | Rwys | IFR | FBO | Links
Com | Nav | Svcs | Stats | Notes
Area around 6PN6 (Henke Heliport)
 
Road maps at: MapQuest Bing Google
 
Aerial photo
No photo
 
Sectional chart

 
Airport distance calculator
Flying to Henke Heliport? Find the distance to fly.

From to 6PN6

Sunrise and sunset
Times for 09-Jul-2020
 Local
(UTC-4)
 Zulu
(UTC)
Morning civil twilight05:2909:29
Sunrise06:0110:01
Sunset20:5200:52
Evening civil twilight21:2401:24

Current date and time
Zulu (UTC)  09-Jul-2020 07:07:22
Local (UTC-4)  09-Jul-2020 03:07:22
 
METAR
KPIT 
7nm N 
090651Z 00000KT 10SM FEW150 23/20 A2993 RMK AO2 SLP130 T02330200
KAFJ 
16nm S 
090656Z AUTO 00000KT 9SM CLR 21/21 A2996 RMK AO2 SLP136 T02110206
KAGC 
18nm E 
090653Z 17006KT 10SM CLR 23/19 A2993 RMK AO2 SLP127 T02330194
TAF
KPIT 
7nm N 
090520Z 0906/1012 00000KT P6SM SKC FM091400 14004KT P6SM SCT060 FM092000 16005KT P6SM VCTS SCT050CB FM100000 12003KT P6SM SCT070
KAGC 
18nm E 
090520Z 0906/1006 16003KT P6SM SKC FM091400 14004KT P6SM SCT060 FM092000 16005KT P6SM VCTS SCT050CB FM100000 12003KT P6SM SCT070
NOTAMs
Click for the latest NOTAMs
NOTAMs are issued by the DoD/FAA and will open in a separate window not controlled by AirNav.

 

 
 

Would you like to see your business listed on this page?

 If your business provides an interesting product or service to pilots, flight crews, aircraft, or users of the Henke Heliport, you should consider listing it here.  To start the listing process, click on the button below
 
Add a business
 

Other Pages about Henke Heliport

Update a link
 
Copyright © AirNav, LLC. All rights reserved. Privacy Policy  Contact